Regional Weather Roundup
Issued by NWS

Home | Current Version | Previous Version | Text Only | Print | Product List | Glossary Off
Versions: 1 2 3 4 5 6 7 8 9 10 11 12 13 14 15 16 17 18 19 20 21 22 23 24 25 26 27 28 29 30 31 32 33 34 35 36 37 38 39 40 41 42 43 44 45 46 47 48 49 50

000
ASUS43 KDTX 282301
RWRMI
MICHIGAN HOURLY REGIONAL WEATHER ROUNDUP
NATIONAL WEATHER SERVICE DETROIT/PONTIAC MI
700 PM EDT MON JUL 28 2014

NOTE: "FAIR" INDICATES FEW OR NO CLOUDS BELOW 12,000 FEET WITH NO
SIGNIFICANT WEATHER AND/OR OBSTRUCTION TO VISIBILITY.

MIZ047>049-052>055-059>063-066>070-074>076-081>083-290000-
SOUTHEAST LOWER MICHIGAN

CITY           SKY/WX    TMP DP  RH WIND       PRES   REMARKS
ADRIAN         CLOUDY    67  51  56 N12       29.97R
ALMA           CLOUDY    62  45  53 N9        30.02R
ANN ARBOR      CLOUDY    67  49  52 N10       29.96S
BAD AXE        CLOUDY    61  45  56 N14       29.99S
CARO           CLOUDY    61  47  60 NW9       29.99S
DETROIT CITY   CLOUDY    66  50  56 N14       29.96S
DETROIT        PTSUNNY   65  51  60 N9        29.96S
FLINT          PTSUNNY   63  47  55 N10       29.99R
GROSSE ILE     CLOUDY    66  52  59 N10       29.94S
HILLSDALE      CLOUDY    65  54  67 NW7       29.98S
HOWELL         PTSUNNY   62  51  67 NE7       29.98S

CITY           SKY/WX    TMP DP  RH WIND       PRES   REMARKS
JACKSON        PTSUNNY   66  52  60 N7        29.98S
LAMBERTVILLE   CLOUDY    68  52  56 NW9       29.95S
LANSING        CLOUDY    65  49  56 N13       30.00R
LAPEER         CLOUDY    59  49  69 N6        29.99S
MASON          MOSUNNY   64  50  61 N12       29.99R
MONROE         CLOUDY    66  54  63 N6        29.94S
MT. CLEMENS    MOSUNNY   63  50  62 N13       29.95R
PONTIAC        PTSUNNY   62  49  62 N15       29.97R
PORT HOPE        N/A     62  50  64 VRB3      29.96S
PORT HURON     CLOUDY    59  48  67 N7        29.97S
TRI CITIES     PTSUNNY   63  45  51 N12       30.02R
TROY           PTSUNNY   63  51  65 N8        29.98R
SAGINAW HB     SUNNY     61  46  59 N10G17    30.01R
$$
MIZ043>046-050>051-056>058-064>065-071>073-077>080-290000-
SOUTHWEST LOWER MICHIGAN

CITY           SKY/WX    TMP DP  RH WIND       PRES   REMARKS
BATTLE CREEK   PTSUNNY   66  53  63 NW12      30.00S
BENTON HARBOR  SUNNY     58  49  72 MISG      30.06S
BIG RAPIDS     SUNNY     63  45  51 N14G22    30.02S
COLDWATER      CLOUDY    66  54  65 W13G20    29.99S
FREMONT        FAIR      66  46  49 N12       30.03R
HOLLAND        SUNNY     62  48  60 NW8       30.05S
GRAND RAPIDS   MOSUNNY   66  47  50 NW10      30.02R
IONIA          FAIR      63  46  54 N10G16    30.01R
KALAMAZOO      SUNNY     65  52  62 NW10G20   30.02S
LUDINGTON      SUNNY     62  48  60 NW7       30.06S
MARSHALL       PTSUNNY   64  54  68 NW7       29.99R
MOUNT PLEASANT PTSUNNY   62  47  58 NW3       30.01S
MUSKEGON       MOSUNNY   61  47  59 W10       30.04S
SOUTH HAVEN    SUNNY     57  49  76 N12G17    30.06R
$$
MIZ016>042-290000-
NORTHERN LOWER MICHIGAN

CITY           SKY/WX    TMP DP  RH WIND       PRES   REMARKS
ALPENA         SUNNY     64  47  53 NW9       29.97F
BEAVER ISLAND  PTSUNNY   63  55  77 SW8       30.01S
BELLAIRE       MOSUNNY   64  47  54 W5        30.01S
CADILLAC       MOSUNNY   61  47  60 NW10      30.03S
CHARLEVOIX     MOSUNNY   63  51  65 W10       30.04S
FRANKFORT      SUNNY     64  45  49 W7        30.04F
GAYLORD        PTSUNNY   61  46  57 VRB5      30.00F
GRAYLING       MOSUNNY   62  47  56 NW7       30.01F
HARBOR SPRINGS MOSUNNY   63  52  68 W7        30.00S
HOUGHTON LAKE  MOSUNNY   63  47  55 N9        30.01S
MANISTEE       SUNNY     63  45  51 NW8       30.05F
OSCODA         CLOUDY    63  46  54 NW10      29.97S
PELLSTON       MOSUNNY   67  47  48 NW12      29.99S
ROGERS CITY    SUNNY     64  50  61 NW10G17   29.98F
TRAVERSE CITY  MOSUNNY   65  46  50 NW7       30.01F
$$
MIZ007>008-015-290000-
EASTERN UPPER MICHIGAN

CITY           SKY/WX    TMP DP  RH WIND       PRES   REMARKS
KINROSS        SUNNY     63  48  59 N7        29.98S
MACKINAC ISLAN SUNNY     65  49  56 N8        29.98S
NEWBERRY       MOSUNNY   64  48  57 NW9       29.99F
S. S. MARIE    SUNNY     59  43  55 NW10G20   29.98S
MUNISING         N/A     66  48  52 CALM      30.01F
$$
MIZ004>006-011>014-085-290000-
CENTRAL UPPER MICHIGAN

CITY           SKY/WX    TMP DP  RH WIND       PRES   REMARKS
MANISTIQUE     SUNNY     69  49  49 N13       30.00S
ESCANABA       MOSUNNY   70  46  43 N5        30.02S
MENOMINEE      CLOUDY    68  55  64 SW5       30.03S
SAWYER-GWINN   CLOUDY    66  50  55 NW6       30.03F
$$
MIZ001>003-009>011-084-290000-
WESTERN UPPER MICHIGAN

CITY           SKY/WX    TMP DP  RH WIND       PRES   REMARKS
IRON MOUNTAIN  PTSUNNY   69  49  48 NW9       30.04S
COPPER HARBOR    N/A     63  53  70 N9        30.01R
$$

ABBREVIATIONS USED IN REMARKS
   TC - TEMPERATURE IN CELSIUS
  WCI - WIND CHILL INDEX
   HX - HEAT INDEX
  VSB - VISIBILITY



USA.gov is the U.S. government's official web portal to all federal, state and local government web resources and services.